owner,sensor,date,latitude,longitude,vertical_datum,direction_of_sea_water_velocity,sea_water_speed,upward_sea_water_velocity,qcFlag 
TABS,ioos:station:wmo:42050:1,2006-12-01T00:00:00Z,28.8425,-94.2433,2.0,170.1765497,10.96069797,-99999.0,'11111222,11111222,99999999' 
TABS,ioos:station:wmo:42050:1,2006-12-01T00:30:00Z,28.8425,-94.2433,2.0,189.9827297,7.960527621,-99999.0,'11133222,11111222,99999999' 
TABS,ioos:station:wmo:42050:1,2006-12-01T01:00:00Z,28.8425,-94.2433,2.0,164.5255463,11.69390012,-99999.0,'11111222,11111222,99999999' 
TABS,ioos:station:wmo:42050:1,2006-12-01T01:30:00Z,28.8425,-94.2433,2.0,153.0721747,3.533058165,-99999.0,'11133222,11111222,99999999' 
TABS,ioos:station:wmo:42050:1,2006-12-01T02:00:00Z,28.8425,-94.2433,2.0,122.020148,8.185303904,-99999.0,'11133222,11111222,99999999' 
TABS,ioos:station:wmo:42050:1,2006-12-01T02:30:00Z,28.8425,-94.2433,2.0,128.7746682,12.45488258,-99999.0,'11111222,11111222,99999999' 
TABS,ioos:station:wmo:42050:1,2006-12-01T03:00:00Z,28.8425,-94.2433,2.0,98.04840103,8.927939292,-99999.0,'11133222,11111222,99999999' 
TABS,ioos:station:wmo:42050:1,2006-12-01T03:30:00Z,28.8425,-94.2433,2.0,96.11779604,8.820232423,-99999.0,'11133222,11111222,99999999' 
TABS,ioos:station:wmo:42050:1,2006-12-01T04:00:00Z,28.8425,-94.2433,2.0,93.19711557,14.70288407,-99999.0,'11111222,11111222,99999999' 
TABS,ioos:station:wmo:42050:1,2006-12-01T04:30:00Z,28.8425,-94.2433,2.0,97.25198633,17.34878094,-99999.0,'11111222,11111222,99999999' 
TABS,ioos:station:wmo:42050:1,2006-12-01T05:00:00Z,28.8425,-94.2433,2.0,86.43245269,12.21366857,-99999.0,'11111222,11111222,99999999' 
TABS,ioos:station:wmo:42050:1,2006-12-01T05:30:00Z,28.8425,-94.2433,2.0,107.4170313,11.9268311,-99999.0,'11111222,11111222,99999999' 
TABS,ioos:station:wmo:42050:1,2006-12-01T06:00:00Z,28.8425,-94.2433,2.0,101.9626505,15.14899337,-99999.0,'11111222,11111222,99999999' 
TABS,ioos:station:wmo:42050:1,2006-12-01T06:30:00Z,28.8425,-94.2433,2.0,124.6929548,17.11234934,-99999.0,'11111222,11111222,99999999' 
TABS,ioos:station:wmo:42050:1,2006-12-01T07:00:00Z,28.8425,-94.2433,2.0,119.5919044,19.05552413,-99999.0,'11111222,11111222,99999999' 
TABS,ioos:station:wmo:42050:1,2006-12-01T07:30:00Z,28.8425,-94.2433,2.0,140.1503799,16.69857479,-99999.0,'11111222,11111222,99999999' 
TABS,ioos:station:wmo:42050:1,2006-12-01T08:00:00Z,28.8425,-94.2433,2.0,136.5930887,21.87219696,-99999.0,'11111222,11111222,99999999' 
TABS,ioos:station:wmo:42050:1,2006-12-01T08:30:00Z,28.8425,-94.2433,2.0,131.4136328,20.34795321,-99999.0,'11111222,11111222,99999999' 
TABS,ioos:station:wmo:42050:1,2006-12-01T09:00:00Z,28.8425,-94.2433,2.0,128.0346354,25.48126567,-99999.0,'11111222,11111222,99999999' 
TABS,ioos:station:wmo:42050:1,2006-12-01T09:30:00Z,28.8425,-94.2433,2.0,116.454775,16.27413285,-99999.0,'11111222,11111222,99999999' 
TABS,ioos:station:wmo:42050:1,2006-12-01T10:00:00Z,28.8425,-94.2433,2.0,132.4480171,15.24619953,-99999.0,'11111222,11111222,99999999' 
TABS,ioos:station:wmo:42050:1,2006-12-01T10:30:00Z,28.8425,-94.2433,2.0,124.2018382,19.2488649,-99999.0,'11111222,11111222,99999999' 
TABS,ioos:station:wmo:42050:1,2006-12-01T11:00:00Z,28.8425,-94.2433,2.0,111.0635904,18.89235295,-99999.0,'11111222,11111222,99999999' 
TABS,ioos:station:wmo:42050:1,2006-12-01T11:30:00Z,28.8425,-94.2433,2.0,101.6893418,21.61835563,-99999.0,'11111222,11111222,99999999' 
TABS,ioos:station:wmo:42050:1,2006-12-01T12:00:00Z,28.8425,-94.2433,2.0,113.7116817,21.112295,-99999.0,'11111222,11111222,99999999' 
TABS,ioos:station:wmo:42050:1,2006-12-01T12:30:00Z,28.8425,-94.2433,2.0,113.7481065,15.74305244,-99999.0,'11111222,11111222,99999999' 
TABS,ioos:station:wmo:42050:1,2006-12-01T13:00:00Z,28.8425,-94.2433,2.0,107.4726662,14.68768872,-99999.0,'11111222,11111222,99999999' 
TABS,ioos:station:wmo:42050:1,2006-12-01T13:30:00Z,28.8425,-94.2433,2.0,83.60138598,16.24117299,-99999.0,'11111222,11111222,99999999' 
TABS,ioos:station:wmo:42050:1,2006-12-01T14:00:00Z,28.8425,-94.2433,2.0,82.53945132,13.55474825,-99999.0,'11111222,11111222,99999999' 
TABS,ioos:station:wmo:42050:1,2006-12-01T14:30:00Z,28.8425,-94.2433,2.0,63.03478592,20.48735464,-99999.0,'11111222,11111222,99999999' 
TABS,ioos:station:wmo:42050:1,2006-12-01T15:00:00Z,28.8425,-94.2433,2.0,56.77347861,22.62973486,-99999.0,'11111222,11111222,99999999' 
TABS,ioos:station:wmo:42050:1,2006-12-01T15:30:00Z,28.8425,-94.2433,2.0,58.45889675,24.33517002,-99999.0,'11111222,11111222,99999999' 
TABS,ioos:station:wmo:42050:1,2006-12-01T16:00:00Z,28.8425,-94.2433,2.0,56.47205366,23.53602345,-99999.0,'11111222,11111222,99999999' 
TABS,ioos:station:wmo:42050:1,2006-12-01T16:30:00Z,28.8425,-94.2433,2.0,49.69199988,22.0436771,-99999.0,'11111222,11111222,99999999' 
TABS,ioos:station:wmo:42050:1,2006-12-01T17:00:00Z,28.8425,-94.2433,2.0,64.5267196,19.7167543,-99999.0,'11111222,11111222,99999999' 
TABS,ioos:station:wmo:42050:1,2006-12-01T17:30:00Z,28.8425,-94.2433,2.0,79.71656369,21.56642993,-99999.0,'11111222,11111222,99999999' 
TABS,ioos:station:wmo:42050:1,2006-12-01T18:00:00Z,28.8425,-94.2433,2.0,70.49973117,15.81728485,-99999.0,'11111222,11111222,99999999' 
TABS,ioos:station:wmo:42050:1,2006-12-01T18:30:00Z,28.8425,-94.2433,2.0,96.07419937,20.6961953,-99999.0,'11111222,11111222,99999999' 
TABS,ioos:station:wmo:42050:1,2006-12-01T19:00:00Z,28.8425,-94.2433,2.0,100.3363318,17.89033538,-99999.0,'11111222,11111222,99999999' 
TABS,ioos:station:wmo:42050:1,2006-12-01T19:30:00Z,28.8425,-94.2433,2.0,112.641692,22.15769392,-99999.0,'11111222,11111222,99999999' 
TABS,ioos:station:wmo:42050:1,2006-12-01T20:00:00Z,28.8425,-94.2433,2.0,111.0742437,15.65723475,-99999.0,'11111222,11111222,99999999' 
TABS,ioos:station:wmo:42050:1,2006-12-01T20:30:00Z,28.8425,-94.2433,2.0,118.0408236,14.93294345,-99999.0,'11111222,11111222,99999999' 
TABS,ioos:station:wmo:42050:1,2006-12-01T21:00:00Z,28.8425,-94.2433,2.0,122.1355729,11.65576681,-99999.0,'11111222,11111222,99999999' 
TABS,ioos:station:wmo:42050:1,2006-12-01T21:30:00Z,28.8425,-94.2433,2.0,126.3765256,12.54446491,-99999.0,'11111222,11111222,99999999' 
TABS,ioos:station:wmo:42050:1,2006-12-01T22:00:00Z,28.8425,-94.2433,2.0,113.3566023,10.94705897,-99999.0,'11111222,11111222,99999999' 
TABS,ioos:station:wmo:42050:1,2006-12-01T22:30:00Z,28.8425,-94.2433,2.0,138.8786386,30.00054833,-99999.0,'11111222,11111222,99999999' 
TABS,ioos:station:wmo:42050:1,2006-12-01T23:00:00Z,28.8425,-94.2433,2.0,136.9407321,21.2961311,-99999.0,'11111222,11111222,99999999' 
TABS,ioos:station:wmo:42050:1,2006-12-01T23:30:00Z,28.8425,-94.2433,2.0,130.712953,18.35126699,-99999.0,'11111222,11111222,99999999' 
TABS,ioos:station:wmo:42050:1,2006-12-02T00:00:00Z,28.8425,-94.2433,2.0,131.1887407,18.51056455,-99999.0,'11111222,11111222,99999999' 
TABS,ioos:station:wmo:42050:1,2006-12-02T00:30:00Z,28.8425,-94.2433,2.0,118.4898847,15.17804994,-99999.0,'11111222,11111222,99999999' 
TABS,ioos:station:wmo:42050:1,2006-12-02T01:00:00Z,28.8425,-94.2433,2.0,119.9305058,16.07374567,-99999.0,'11111222,11111222,99999999' 
TABS,ioos:station:wmo:42050:1,2006-12-02T01:30:00Z,28.8425,-94.2433,2.0,105.4495501,11.11151205,-99999.0,'11111222,11111222,99999999' 
TABS,ioos:station:wmo:42050:1,2006-12-02T02:00:00Z,28.8425,-94.2433,2.0,83.04326898,10.98084241,-99999.0,'11111222,11111222,99999999' 
TABS,ioos:station:wmo:42050:1,2006-12-02T02:30:00Z,28.8425,-94.2433,2.0,81.9237587,10.53448148,-99999.0,'11111222,11111222,99999999' 
TABS,ioos:station:wmo:42050:1,2006-12-02T03:00:00Z,28.8425,-94.2433,2.0,72.53161785,9.560925687,-99999.0,'11133222,11111222,99999999' 
TABS,ioos:station:wmo:42050:1,2006-12-02T03:30:00Z,28.8425,-94.2433,2.0,70.41969765,9.966328311,-99999.0,'11133222,11111222,99999999' 
TABS,ioos:station:wmo:42050:1,2006-12-02T04:00:00Z,28.8425,-94.2433,2.0,65.31827068,8.57324326,-99999.0,'11133222,11111222,99999999' 
TABS,ioos:station:wmo:42050:1,2006-12-02T04:30:00Z,28.8425,-94.2433,2.0,63.27406854,7.960433405,-99999.0,'11133222,11111222,99999999' 
TABS,ioos:station:wmo:42050:1,2006-12-02T05:00:00Z,28.8425,-94.2433,2.0,68.00218401,7.581985228,-99999.0,'11133222,11111222,99999999' 
TABS,ioos:station:wmo:42050:1,2006-12-02T05:30:00Z,28.8425,-94.2433,2.0,71.30931185,7.083572545,-99999.0,'11133222,11111222,99999999' 
TABS,ioos:station:wmo:42050:1,2006-12-02T06:00:00Z,28.8425,-94.2433,2.0,98.40735883,6.429090138,-99999.0,'11133222,11111222,99999999' 
TABS,ioos:station:wmo:42050:1,2006-12-02T06:30:00Z,28.8425,-94.2433,2.0,119.0926469,7.301157442,-99999.0,'11133222,11111222,99999999' 
TABS,ioos:station:wmo:42050:1,2006-12-02T07:00:00Z,28.8425,-94.2433,2.0,147.4667543,8.516384209,-99999.0,'11133222,11111222,99999999' 
TABS,ioos:station:wmo:42050:1,2006-12-02T07:30:00Z,28.8425,-94.2433,2.0,158.7493337,11.58792475,-99999.0,'11111222,11111222,99999999' 
TABS,ioos:station:wmo:42050:1,2006-12-02T08:00:00Z,28.8425,-94.2433,2.0,162.0114069,12.98470639,-99999.0,'11111222,11111222,99999999' 
TABS,ioos:station:wmo:42050:1,2006-12-02T08:30:00Z,28.8425,-94.2433,2.0,164.9444401,17.86314922,-99999.0,'11111222,11111222,99999999' 
TABS,ioos:station:wmo:42050:1,2006-12-02T09:00:00Z,28.8425,-94.2433,2.0,181.8206475,24.86255417,-99999.0,'11111222,11111222,99999999' 
TABS,ioos:station:wmo:42050:1,2006-12-02T09:30:00Z,28.8425,-94.2433,2.0,226.7708483,27.68231385,-99999.0,'11111222,11111222,99999999' 
TABS,ioos:station:wmo:42050:1,2006-12-02T10:00:00Z,28.8425,-94.2433,2.0,237.8692639,27.20703034,-99999.0,'11111222,11111222,99999999' 
TABS,ioos:station:wmo:42050:1,2006-12-02T10:30:00Z,28.8425,-94.2433,2.0,245.1332296,28.06156802,-99999.0,'11111222,11111222,99999999' 
TABS,ioos:station:wmo:42050:1,2006-12-02T11:00:00Z,28.8425,-94.2433,2.0,255.5992892,24.80946997,-99999.0,'11111222,11111222,99999999' 
TABS,ioos:station:wmo:42050:1,2006-12-02T11:30:00Z,28.8425,-94.2433,2.0,261.4852186,25.93584585,-99999.0,'11111222,11111222,99999999' 
TABS,ioos:station:wmo:42050:1,2006-12-02T12:00:00Z,28.8425,-94.2433,2.0,265.9354637,24.69209185,-99999.0,'11111222,11111222,99999999' 
TABS,ioos:station:wmo:42050:1,2006-12-02T12:30:00Z,28.8425,-94.2433,2.0,270.1601667,21.52008364,-99999.0,'11111222,11111222,99999999' 
TABS,ioos:station:wmo:42050:1,2006-12-02T13:00:00Z,28.8425,-94.2433,2.0,274.4524142,16.48975439,-99999.0,'11111222,11111222,99999999' 
TABS,ioos:station:wmo:42050:1,2006-12-02T13:30:00Z,28.8425,-94.2433,2.0,282.7741876,17.50319399,-99999.0,'11111222,11111222,99999999' 
TABS,ioos:station:wmo:42050:1,2006-12-02T14:00:00Z,28.8425,-94.2433,2.0,289.2435188,16.14187102,-99999.0,'11111222,11111222,99999999' 
TABS,ioos:station:wmo:42050:1,2006-12-02T14:30:00Z,28.8425,-94.2433,2.0,299.994933,16.222657,-99999.0,'11111222,11111222,99999999' 
TABS,ioos:station:wmo:42050:1,2006-12-02T15:00:00Z,28.8425,-94.2433,2.0,305.6222463,14.23337627,-99999.0,'11111222,11111222,99999999' 
TABS,ioos:station:wmo:42050:1,2006-12-02T15:30:00Z,28.8425,-94.2433,2.0,304.0617235,14.12296357,-99999.0,'11111222,11111222,99999999' 
TABS,ioos:station:wmo:42050:1,2006-12-02T16:00:00Z,28.8425,-94.2433,2.0,320.1896602,14.46304601,-99999.0,'11111222,11111222,99999999' 
TABS,ioos:station:wmo:42050:1,2006-12-02T16:30:00Z,28.8425,-94.2433,2.0,315.0978124,12.4663106,-99999.0,'11111222,11111222,99999999' 
TABS,ioos:station:wmo:42050:1,2006-12-02T17:00:00Z,28.8425,-94.2433,2.0,303.6619044,11.14947532,-99999.0,'11111222,11111222,99999999' 
TABS,ioos:station:wmo:42050:1,2006-12-02T17:30:00Z,28.8425,-94.2433,2.0,316.6069275,12.35801359,-99999.0,'11111222,11111222,99999999' 
TABS,ioos:station:wmo:42050:1,2006-12-02T18:00:00Z,28.8425,-94.2433,2.0,313.1931325,10.98683303,-99999.0,'11111222,11111222,99999999' 
TABS,ioos:station:wmo:42050:1,2006-12-02T18:30:00Z,28.8425,-94.2433,2.0,306.1320736,10.09083743,-99999.0,'11111222,11111222,99999999' 
TABS,ioos:station:wmo:42050:1,2006-12-02T19:00:00Z,28.8425,-94.2433,2.0,303.9888218,6.922752343,-99999.0,'11133222,11111222,99999999' 
TABS,ioos:station:wmo:42050:1,2006-12-02T19:30:00Z,28.8425,-94.2433,2.0,300.2634706,6.170980473,-99999.0,'11133222,11111222,99999999' 
TABS,ioos:station:wmo:42050:1,2006-12-02T20:00:00Z,28.8425,-94.2433,2.0,281.8732134,5.589579591,-99999.0,'11133222,11111222,99999999' 
TABS,ioos:station:wmo:42050:1,2006-12-02T20:30:00Z,28.8425,-94.2433,2.0,264.5763732,6.348417126,-99999.0,'11133222,11111222,99999999' 
TABS,ioos:station:wmo:42050:1,2006-12-02T21:00:00Z,28.8425,-94.2433,2.0,247.9425095,6.657244175,-99999.0,'11133222,11111222,99999999' 
TABS,ioos:station:wmo:42050:1,2006-12-02T21:30:00Z,28.8425,-94.2433,2.0,249.5556067,6.584747527,-99999.0,'11133222,11111222,99999999' 
TABS,ioos:station:wmo:42050:1,2006-12-02T22:00:00Z,28.8425,-94.2433,2.0,236.1710519,8.029308812,-99999.0,'11133222,11111222,99999999' 
TABS,ioos:station:wmo:42050:1,2006-12-02T22:30:00Z,28.8425,-94.2433,2.0,236.0231145,8.320606949,-99999.0,'11133222,11111222,99999999' 
TABS,ioos:station:wmo:42050:1,2006-12-02T23:00:00Z,28.8425,-94.2433,2.0,242.4050751,4.23132367,-99999.0,'11133222,11111222,99999999' 
TABS,ioos:station:wmo:42050:1,2006-12-02T23:30:00Z,28.8425,-94.2433,2.0,243.9980201,7.276517024,-99999.0,'11133222,11111222,99999999' 
TABS,ioos:station:wmo:42050:1,2006-12-03T00:00:00Z,28.8425,-94.2433,2.0,223.4872794,4.286560393,-99999.0,'11133222,11111222,99999999' 
TABS,ioos:station:wmo:42050:1,2006-12-03T00:30:00Z,28.8425,-94.2433,2.0,221.5227044,5.5964453,-99999.0,'11133222,11111222,99999999' 
TABS,ioos:station:wmo:42050:1,2006-12-03T01:00:00Z,28.8425,-94.2433,2.0,235.3045067,6.957010852,-99999.0,'11133222,11111222,99999999' 
TABS,ioos:station:wmo:42050:1,2006-12-03T01:30:00Z,28.8425,-94.2433,2.0,256.6859779,6.7308989,-99999.0,'11133222,11111222,99999999' 
TABS,ioos:station:wmo:42050:1,2006-12-03T02:00:00Z,28.8425,-94.2433,2.0,265.3237691,6.501638255,-99999.0,'11133222,11111222,99999999' 
TABS,ioos:station:wmo:42050:1,2006-12-03T02:30:00Z,28.8425,-94.2433,2.0,268.8784767,5.11097838,-99999.0,'11133222,11111222,99999999' 
TABS,ioos:station:wmo:42050:1,2006-12-03T03:00:00Z,28.8425,-94.2433,2.0,251.4953921,7.845616611,-99999.0,'11133222,11111222,99999999' 
TABS,ioos:station:wmo:42050:1,2006-12-03T03:30:00Z,28.8425,-94.2433,2.0,265.8856311,4.32113411,-99999.0,'11133222,11111222,99999999' 
TABS,ioos:station:wmo:42050:1,2006-12-03T04:00:00Z,28.8425,-94.2433,2.0,275.479364,4.922489208,-99999.0,'11133222,11111222,99999999' 
TABS,ioos:station:wmo:42050:1,2006-12-03T04:30:00Z,28.8425,-94.2433,2.0,246.9268881,4.184746109,-99999.0,'11133222,11111222,99999999' 
TABS,ioos:station:wmo:42050:1,2006-12-03T05:00:00Z,28.8425,-94.2433,2.0,279.5726406,3.427725193,-99999.0,'11133222,11111222,99999999' 
TABS,ioos:station:wmo:42050:1,2006-12-03T05:30:00Z,28.8425,-94.2433,2.0,234.8421607,5.956660138,-99999.0,'11133222,11111222,99999999' 
TABS,ioos:station:wmo:42050:1,2006-12-03T06:00:00Z,28.8425,-94.2433,2.0,235.5570514,11.19204182,-99999.0,'11111222,11111222,99999999' 
TABS,ioos:station:wmo:42050:1,2006-12-03T06:30:00Z,28.8425,-94.2433,2.0,226.2479011,12.33486927,-99999.0,'11111222,11111222,99999999' 
TABS,ioos:station:wmo:42050:1,2006-12-03T07:00:00Z,28.8425,-94.2433,2.0,225.6587871,16.59689429,-99999.0,'11111222,11111222,99999999' 
TABS,ioos:station:wmo:42050:1,2006-12-03T07:30:00Z,28.8425,-94.2433,2.0,226.8599757,22.65349863,-99999.0,'11111222,11111222,99999999' 
TABS,ioos:station:wmo:42050:1,2006-12-03T08:00:00Z,28.8425,-94.2433,2.0,222.6459518,25.1376411,-99999.0,'11111222,11111222,99999999' 
TABS,ioos:station:wmo:42050:1,2006-12-03T08:30:00Z,28.8425,-94.2433,2.0,221.6812536,26.75228028,-99999.0,'11111222,11111222,99999999' 
TABS,ioos:station:wmo:42050:1,2006-12-03T09:00:00Z,28.8425,-94.2433,2.0,220.2654255,30.92830581,-99999.0,'11111222,11111222,99999999' 
TABS,ioos:station:wmo:42050:1,2006-12-03T09:30:00Z,28.8425,-94.2433,2.0,222.6158128,32.64001225,-99999.0,'11111222,11111222,99999999' 
TABS,ioos:station:wmo:42050:1,2006-12-03T10:00:00Z,28.8425,-94.2433,2.0,221.141215,35.20178547,-99999.0,'11111222,11111222,99999999' 
TABS,ioos:station:wmo:42050:1,2006-12-03T10:30:00Z,28.8425,-94.2433,2.0,223.0231894,35.67354762,-99999.0,'11111222,11111222,99999999' 
TABS,ioos:station:wmo:42050:1,2006-12-03T11:00:00Z,28.8425,-94.2433,2.0,223.8224708,38.89201075,-99999.0,'11111222,11111222,99999999' 
TABS,ioos:station:wmo:42050:1,2006-12-03T11:30:00Z,28.8425,-94.2433,2.0,224.7657303,34.63437887,-99999.0,'11111222,11111222,99999999' 
TABS,ioos:station:wmo:42050:1,2006-12-03T12:00:00Z,28.8425,-94.2433,2.0,228.5311262,35.47219334,-99999.0,'11111222,11111222,99999999' 
TABS,ioos:station:wmo:42050:1,2006-12-03T12:30:00Z,28.8425,-94.2433,2.0,229.1861036,26.05569611,-99999.0,'11111222,11111222,99999999' 
TABS,ioos:station:wmo:42050:1,2006-12-03T13:00:00Z,28.8425,-94.2433,2.0,227.7521633,20.6147326,-99999.0,'11111222,11111222,99999999' 
TABS,ioos:station:wmo:42050:1,2006-12-03T13:30:00Z,28.8425,-94.2433,2.0,236.8451815,22.25277061,-99999.0,'11111222,11111222,99999999' 
TABS,ioos:station:wmo:42050:1,2006-12-03T14:00:00Z,28.8425,-94.2433,2.0,241.0319862,20.48249985,-99999.0,'11111222,11111222,99999999' 
TABS,ioos:station:wmo:42050:1,2006-12-03T14:30:00Z,28.8425,-94.2433,2.0,242.6379464,19.2991321,-99999.0,'11111222,11111222,99999999' 
TABS,ioos:station:wmo:42050:1,2006-12-03T15:00:00Z,28.8425,-94.2433,2.0,255.2000646,18.75209322,-99999.0,'11111222,11111222,99999999' 
TABS,ioos:station:wmo:42050:1,2006-12-03T15:30:00Z,28.8425,-94.2433,2.0,257.0277642,16.97314644,-99999.0,'11111222,11111222,99999999' 
TABS,ioos:station:wmo:42050:1,2006-12-03T16:00:00Z,28.8425,-94.2433,2.0,266.1273956,13.77143783,-99999.0,'11111222,11111222,99999999' 
TABS,ioos:station:wmo:42050:1,2006-12-03T16:30:00Z,28.8425,-94.2433,2.0,265.8469274,13.39516704,-99999.0,'11111222,11111222,99999999' 
TABS,ioos:station:wmo:42050:1,2006-12-03T17:00:00Z,28.8425,-94.2433,2.0,283.9003758,10.19865187,-99999.0,'11111222,11111222,99999999' 
TABS,ioos:station:wmo:42050:1,2006-12-03T17:30:00Z,28.8425,-94.2433,2.0,289.9174003,12.59324025,-99999.0,'11111222,11111222,99999999' 
TABS,ioos:station:wmo:42050:1,2006-12-03T18:00:00Z,28.8425,-94.2433,2.0,281.4699244,10.56089485,-99999.0,'11111222,11111222,99999999' 
TABS,ioos:station:wmo:42050:1,2006-12-03T18:30:00Z,28.8425,-94.2433,2.0,279.1605788,8.417345187,-99999.0,'11133222,11111222,99999999' 
TABS,ioos:station:wmo:42050:1,2006-12-03T19:00:00Z,28.8425,-94.2433,2.0,255.9779438,9.534075729,-99999.0,'11133222,11111222,99999999' 
TABS,ioos:station:wmo:42050:1,2006-12-03T19:30:00Z,28.8425,-94.2433,2.0,238.5121833,9.381364506,-99999.0,'11133222,11111222,99999999' 
TABS,ioos:station:wmo:42050:1,2006-12-03T20:00:00Z,28.8425,-94.2433,2.0,246.5627795,10.73570678,-99999.0,'11111222,11111222,99999999' 
TABS,ioos:station:wmo:42050:1,2006-12-03T20:30:00Z,28.8425,-94.2433,2.0,248.7385507,11.22392534,-99999.0,'11111222,11111222,99999999' 
TABS,ioos:station:wmo:42050:1,2006-12-03T21:00:00Z,28.8425,-94.2433,2.0,223.7062242,14.09622999,-99999.0,'11111222,11111222,99999999' 
TABS,ioos:station:wmo:42050:1,2006-12-03T21:30:00Z,28.8425,-94.2433,2.0,212.3866752,9.390729471,-99999.0,'11133222,11111222,99999999' 
TABS,ioos:station:wmo:42050:1,2006-12-03T22:00:00Z,28.8425,-94.2433,2.0,219.0464292,11.79451144,-99999.0,'11111222,11111222,99999999' 
TABS,ioos:station:wmo:42050:1,2006-12-03T22:30:00Z,28.8425,-94.2433,2.0,219.7628682,10.38123307,-99999.0,'11111222,11111222,99999999' 
TABS,ioos:station:wmo:42050:1,2006-12-03T23:00:00Z,28.8425,-94.2433,2.0,204.6527357,8.846338226,-99999.0,'11133222,11111222,99999999' 
TABS,ioos:station:wmo:42050:1,2006-12-03T23:30:00Z,28.8425,-94.2433,2.0,202.0695947,14.66452181,-99999.0,'11111222,11111222,99999999' 
TABS,ioos:station:wmo:42050:1,2006-12-04T00:00:00Z,28.8425,-94.2433,2.0,198.1223831,12.76314225,-99999.0,'11111222,11111222,99999999' 
TABS,ioos:station:wmo:42050:1,2006-12-04T00:30:00Z,28.8425,-94.2433,2.0,205.0056563,15.77906524,-99999.0,'11111222,11111222,99999999' 
TABS,ioos:station:wmo:42050:1,2006-12-04T01:00:00Z,28.8425,-94.2433,2.0,197.2457941,8.230018226,-99999.0,'11133222,11111222,99999999' 
TABS,ioos:station:wmo:42050:1,2006-12-04T01:30:00Z,28.8425,-94.2433,2.0,196.3034279,15.81600455,-99999.0,'11111222,11111222,99999999' 
TABS,ioos:station:wmo:42050:1,2006-12-04T02:00:00Z,28.8425,-94.2433,2.0,187.2566186,11.32068019,-99999.0,'11111222,11111222,99999999' 
TABS,ioos:station:wmo:42050:1,2006-12-04T02:30:00Z,28.8425,-94.2433,2.0,223.1156385,12.90460383,-99999.0,'11111222,11111222,99999999' 
TABS,ioos:station:wmo:42050:1,2006-12-04T03:00:00Z,28.8425,-94.2433,2.0,237.1274209,14.57345875,-99999.0,'11111222,11111222,99999999' 
TABS,ioos:station:wmo:42050:1,2006-12-04T03:30:00Z,28.8425,-94.2433,2.0,213.892325,12.55294388,-99999.0,'11111222,11111222,99999999' 
TABS,ioos:station:wmo:42050:1,2006-12-04T04:00:00Z,28.8425,-94.2433,2.0,226.4684816,9.103455388,-99999.0,'11133222,11111222,99999999' 
TABS,ioos:station:wmo:42050:1,2006-12-04T04:30:00Z,28.8425,-94.2433,2.0,220.0417401,7.445407981,-99999.0,'11133222,11111222,99999999' 
TABS,ioos:station:wmo:42050:1,2006-12-04T05:00:00Z,28.8425,-94.2433,2.0,227.562402,11.54445754,-99999.0,'11111222,11111222,99999999' 
TABS,ioos:station:wmo:42050:1,2006-12-04T05:30:00Z,28.8425,-94.2433,2.0,259.2932923,8.935546989,-99999.0,'11133222,11111222,99999999' 
TABS,ioos:station:wmo:42050:1,2006-12-04T06:00:00Z,28.8425,-94.2433,2.0,239.8510579,11.09022092,-99999.0,'11111222,11111222,99999999' 
TABS,ioos:station:wmo:42050:1,2006-12-04T06:30:00Z,28.8425,-94.2433,2.0,216.6242,9.806089945,-99999.0,'11133222,11111222,99999999' 
TABS,ioos:station:wmo:42050:1,2006-12-04T07:00:00Z,28.8425,-94.2433,2.0,217.048561,12.16605935,-99999.0,'11111222,11111222,99999999' 
TABS,ioos:station:wmo:42050:1,2006-12-04T07:30:00Z,28.8425,-94.2433,2.0,216.3523343,16.83668613,-99999.0,'11111222,11111222,99999999' 
TABS,ioos:station:wmo:42050:1,2006-12-04T08:00:00Z,28.8425,-94.2433,2.0,220.5747653,16.58867385,-99999.0,'11111222,11111222,99999999' 
TABS,ioos:station:wmo:42050:1,2006-12-04T08:30:00Z,28.8425,-94.2433,2.0,223.1551276,17.13500511,-99999.0,'11111222,11111222,99999999' 
TABS,ioos:station:wmo:42050:1,2006-12-04T09:00:00Z,28.8425,-94.2433,2.0,226.7402884,20.02035964,-99999.0,'11111222,11111222,99999999' 
TABS,ioos:station:wmo:42050:1,2006-12-04T09:30:00Z,28.8425,-94.2433,2.0,226.8892989,24.8754015,-99999.0,'11111222,11111222,99999999' 
TABS,ioos:station:wmo:42050:1,2006-12-04T10:00:00Z,28.8425,-94.2433,2.0,222.983294,24.91973114,-99999.0,'11111222,11111222,99999999' 
TABS,ioos:station:wmo:42050:1,2006-12-04T10:30:00Z,28.8425,-94.2433,2.0,225.4304705,30.09531525,-99999.0,'11111222,11111222,99999999' 
TABS,ioos:station:wmo:42050:1,2006-12-04T11:00:00Z,28.8425,-94.2433,2.0,221.2754654,28.19532053,-99999.0,'11111222,11111222,99999999' 
TABS,ioos:station:wmo:42050:1,2006-12-04T11:30:00Z,28.8425,-94.2433,2.0,234.9337586,31.76574413,-99999.0,'11111222,11111222,99999999' 
TABS,ioos:station:wmo:42050:1,2006-12-04T12:00:00Z,28.8425,-94.2433,2.0,239.2029829,37.63723954,-99999.0,'11111222,11111222,99999999' 
TABS,ioos:station:wmo:42050:1,2006-12-04T12:30:00Z,28.8425,-94.2433,2.0,235.0039327,37.97631499,-99999.0,'11111222,11111222,99999999' 
TABS,ioos:station:wmo:42050:1,2006-12-04T13:00:00Z,28.8425,-94.2433,2.0,246.1996473,33.6517533,-99999.0,'11111222,11111222,99999999' 
TABS,ioos:station:wmo:42050:1,2006-12-04T13:30:00Z,28.8425,-94.2433,2.0,241.8555836,33.43296726,-99999.0,'11111222,11111222,99999999' 
TABS,ioos:station:wmo:42050:1,2006-12-04T14:00:00Z,28.8425,-94.2433,2.0,251.3667099,30.20309421,-99999.0,'11111222,11111222,99999999' 
TABS,ioos:station:wmo:42050:1,2006-12-04T14:30:00Z,28.8425,-94.2433,2.0,254.9565382,25.12086782,-99999.0,'11111222,11111222,99999999' 
TABS,ioos:station:wmo:42050:1,2006-12-04T15:00:00Z,28.8425,-94.2433,2.0,258.7382399,25.45,-99999.0,'11111222,11111222,99999999' 
TABS,ioos:station:wmo:42050:1,2006-12-04T15:30:00Z,28.8425,-94.2433,2.0,262.7115022,23.09660148,-99999.0,'11111222,11111222,99999999' 
TABS,ioos:station:wmo:42050:1,2006-12-04T16:00:00Z,28.8425,-94.2433,2.0,276.1199083,20.3559942,-99999.0,'11111222,11111222,99999999' 